Content
SEND FEEDBACK

Daily
Averages
Monthly
Summary
United States of America

CHAUTAUQUA, NEW YORK


Home > North America > United States > New York
Elevation: 1264 feet     Latitude: 42 17N     Longitude: 079 37W

WEATHER
 
SELECT A DAY
Number of Records: 207,781;   Date Range: 12/11/96 - 12/17/14
 
SHARE

PRINT THIS DATA

[ ← Previous Day ]
WEATHER ALMANAC - JULY 30, 2014
[ Next Day → ]
[ °C ]   °F
Weather ElementAverageHighLow
Temperature65 °F71.1 °F (11:53 am)57.9 °F (6:53 am)
Dewpoint56.1 °F60.1 °F (2:19 am)50 °F (5:53 am)
Humidity73.3 %87 % (8:12 am)61 % (7:53 pm)
Barometer29.98 in30.01 in (10:53 am)29.95 in (8:53 pm)
Wind Speed11.5 mph16.1 mph (8:53 am)
Wind Gust27.6 mph (12:38 pm)
Weather ElementAverage
Visibility10 mi
Wind DirectionSW (222.2 °)

Weather ElementTotal
Precipitation0.04 in
Heating Degree Days0.5 (Base 65)
Growing Degree Days14.5 (Base 50)
Averaged from 27 records on July 30, 2014
WEATHER CONDITIONS BREAKOUT
WIND DIRECTION BREAKOUT
WEATHER BY HOUR - JULY 30, 2014
[ °C ]   °F
Local TimeTemperatureDewpointHumidityBarometerVisibilityWind DirectionWind SpeedGust SpeedPrecipitationEventsConditions
12:53 AM60.1 °F51.1 °F72 %29.97 in10.0 miSouth (190°)9.2 mph0.00 inOvercast
1:53 AM61.0 °F50.0 °F67 %29.97 in10.0 miSouth (190°)10.4 mph20.7 mphOvercast
2:53 AM57.9 °F53.1 °F84 %29.97 in10.0 miSouth (190°)9.2 mph0.02 inRainLight Rain
3:53 AM57.9 °F53.1 °F84 %29.95 in10.0 miSSW (210°)10.4 mph0.00 inRainLight Rain
4:53 AM57.9 °F54.0 °F87 %29.96 in10.0 miSouth (190°)10.4 mph21.9 mph0.02 inRainLight Rain
5:53 AM57.9 °F54.0 °F87 %29.96 in10.0 miSSW (200°)8.1 mph0.00 inClear
6:53 AM59.0 °F55.0 °F87 %29.97 in10.0 miSouth (190°)8.1 mphOvercast
7:53 AM60.1 °F55.0 °F83 %29.98 in10.0 miSouth (190°)6.9 mphClear
8:53 AM63.0 °F55.0 °F75 %29.98 in10.0 miSSW (210°)13.8 mph23.0 mphClear
9:53 AM64.0 °F55.9 °F75 %29.98 in10.0 miSouth (190°)9.2 mphMostly Cloudy
10:53 AM66.9 °F55.9 °F68 %29.98 in10.0 miSSW (210°)9.2 mphMostly Cloudy
11:53 AM70.0 °F55.9 °F61 %29.99 in10.0 miWSW (250°)13.8 mphScattered Clouds
1:05 PM71.1 °F59.0 °F66 %29.98 in10.0 miWSW (250°)15.0 mph23.0 mphThunderstormPartly Cloudy
1:53 PM70.0 °F57.0 °F63 %29.97 in10.0 miWest (260°)16.1 mph25.3 mphThunderstormPartly Cloudy
2:00 PM70.0 °F57.9 °F65 %29.97 in10.0 miWest (260°)12.7 mph27.6 mphPartly Cloudy
2:53 PM71.1 °F60.1 °F68 %29.97 in10.0 miWest (270°)16.1 mph23.0 mphScattered Clouds
3:09 PM70.0 °F57.9 °F65 %29.97 in10.0 miWest (260°)16.1 mph26.5 mphMostly Cloudy
3:17 PM71.1 °F59.0 °F66 %29.98 in10.0 miWest (270°)16.1 mph26.5 mphScattered Clouds
3:53 PM70.0 °F57.9 °F65 %29.97 in10.0 miWest (260°)15.0 mph27.6 mphPartly Cloudy
4:33 PM70.0 °F57.9 °F65 %29.98 in10.0 miWSW (240°)15.0 mph26.5 mphMostly Cloudy
4:53 PM70.0 °F57.9 °F65 %29.97 in10.0 miWSW (250°)15.0 mph23.0 mphScattered Clouds
5:53 PM69.1 °F59.0 °F70 %29.98 in10.0 miWSW (250°)15.0 mph21.9 mphScattered Clouds
6:53 PM69.1 °F57.0 °F65 %29.99 in10.0 miWSW (240°)10.4 mphPartly Cloudy
8:53 PM63.0 °F57.0 °F81 %29.99 in10.0 miSouth (190°)5.8 mphClear
9:53 PM61.0 °F55.9 °F83 %30.01 in10.0 miSSW (200°)5.8 mphClear
10:53 PM62.1 °F55.9 °F80 %30.01 in10.0 miSSW (200°)8.1 mphMostly Cloudy
11:53 PM63.0 °F57.0 °F81 %30.00 in10.0 miSouth (190°)9.2 mphMostly Cloudy
Hourly data recorded from KDKK, located miles away from Chautauqua, New York







STORIES FROM OUR PARTNERS